• In Germany
  • List of Countries
  • For 7 days
  • Water Temperature
  • Satellite Maps
  • Weather Map
  • Weather Widgets
  • user-avatar
    Login

    Hourly Weather Innsbruck

    Today, 27 April, Thursday

    Time Temperature Precipitation Wind Pressure Humidity
    00:00 -3°C° 1.5 mm 0 mps 588 mmHg 98%
    01:00 -4°C° 1.5 mm 0 mps 588 mmHg 98%
    02:00 -4°C° 0.9 mm 0 mps 587 mmHg 98%
    03:00 -4°C° 0.9 mm 0 mps 587 mmHg 98%
    04:00 -4°C° 0.9 mm 0 mps 587 mmHg 98%
    05:00 -4°C° 0.5 mm 0 mps 587 mmHg 98%
    06:00 -3°C° 0.5 mm 0 mps 588 mmHg 98%
    07:00 -3°C° 0.5 mm 0 mps 588 mmHg 98%
    08:00 -2°C° 0.5 mm 1 mps 588 mmHg 98%
    09:00 -1°C° 0.5 mm 1 mps 589 mmHg 97%
    10:00 0°C° 0.5 mm 1 mps 589 mmHg 97%
    11:00 0°C° 0.8 mm 1 mps 589 mmHg 97%
    12:00 0°C° 0.8 mm 1 mps 589 mmHg 96%
    13:00 0°C° 0.8 mm 1 mps 589 mmHg 96%
    14:00 0°C° 1.2 mm 1 mps 589 mmHg 96%
    15:00 -3°C° 1.2 mm 2 mps 589 mmHg 97%
    16:00 -3°C° 1.2 mm 2 mps 588 mmHg 97%
    17:00 -4°C° 1.9 mm 2 mps 588 mmHg 97%
    18:00 -2°C° 1.9 mm 1 mps 587 mmHg 98%
    19:00 -3°C° 1.9 mm 1 mps 587 mmHg 98%
    20:00 -3°C° 2.1 mm 1 mps 587 mmHg 98%
    21:00 -4°C° 2.1 mm 1 mps 587 mmHg 98%
    22:00 -4°C° 2.1 mm 1 mps 587 mmHg 98%
    23:00 -4°C° 1.9 mm 1 mps 586 mmHg 98%

    Tomorrow, 28 April, Friday

    Time Temperature Precipitation Wind Pressure Humidity
    00:00 -4°C° 1.9 mm 1 mps 586 mmHg 98%
    01:00 -6°C° 1.9 mm 1 mps 586 mmHg 98%
    02:00 -6°C° 1.1 mm 1 mps 586 mmHg 98%
    03:00 -6°C° 1.1 mm 1 mps 585 mmHg 98%
    04:00 -6°C° 1.1 mm 1 mps 585 mmHg 98%
    05:00 -6°C° 1.2 mm 1 mps 585 mmHg 98%
    06:00 -4°C° 1.2 mm 1 mps 585 mmHg 98%
    07:00 -4°C° 1.2 mm 1 mps 586 mmHg 98%
    08:00 -4°C° 1.2 mm 1 mps 586 mmHg 98%
    09:00 -6°C° 1.2 mm 2 mps 586 mmHg 98%
    10:00 -5°C° 1.2 mm 2 mps 587 mmHg 98%
    11:00 -5°C° 1.2 mm 2 mps 587 mmHg 98%
    12:00 -5°C° 1.2 mm 2 mps 587 mmHg 98%
    13:00 -5°C° 1.2 mm 2 mps 587 mmHg 98%
    14:00 -5°C° 1.3 mm 2 mps 588 mmHg 98%
    15:00 -5°C° 1.3 mm 2 mps 588 mmHg 98%
    16:00 -5°C° 1.3 mm 2 mps 588 mmHg 98%
    17:00 -6°C° 1 mm 2 mps 588 mmHg 98%
    18:00 -6°C° 1 mm 2 mps 589 mmHg 98%
    19:00 -7°C° 1 mm 2 mps 589 mmHg 98%
    20:00 -7°C° 0.7 mm 2 mps 589 mmHg 97%
    21:00 -7°C° 0.7 mm 2 mps 589 mmHg 97%
    22:00 -8°C° 0.7 mm 2 mps 590 mmHg 97%
    23:00 -8°C° 0.5 mm 2 mps 590 mmHg 97%

    Day after tomorrow, 29 April, Saturday

    Time Temperature Precipitation Wind Pressure Humidity
    00:00 -8°C° 0.5 mm 1 mps 590 mmHg 98%
    01:00 -8°C° 0.5 mm 1 mps 590 mmHg 98%
    02:00 -9°C° 0.2 mm 1 mps 589 mmHg 97%
    03:00 -10°C° 0.2 mm 1 mps 589 mmHg 97%
    04:00 -11°C° 0.2 mm 1 mps 589 mmHg 97%
    05:00 -9°C° 0 mm 1 mps 590 mmHg 97%
    06:00 -8°C° 0 mm 1 mps 591 mmHg 97%
    07:00 -6°C° 0 mm 1 mps 592 mmHg 96%
    08:00 -4°C° 0 mm 1 mps 592 mmHg 96%
    09:00 -3°C° 0 mm 0 mps 592 mmHg 96%
    10:00 -2°C° 0 mm 0 mps 593 mmHg 96%
    11:00 -2°C° 0 mm 0 mps 593 mmHg 96%
    12:00 -1°C° 0 mm 0 mps 593 mmHg 96%
    13:00 0°C° 0 mm 1 mps 592 mmHg 96%
    14:00 0°C° 0 mm 1 mps 592 mmHg 95%
    15:00 0°C° 0 mm 1 mps 592 mmHg 95%
    16:00 0°C° 0 mm 1 mps 592 mmHg 95%
    17:00 -1°C° 0 mm 1 mps 592 mmHg 96%
    18:00 -2°C° 0 mm 1 mps 591 mmHg 97%
    19:00 -3°C° 0 mm 1 mps 591 mmHg 97%
    20:00 -4°C° 0 mm 1 mps 591 mmHg 97%
    21:00 -4°C° 0 mm 1 mps 591 mmHg 97%
    22:00 -7°C° 0 mm 2 mps 591 mmHg 97%
    23:00 -7°C° 0 mm 2 mps 590 mmHg 97%

    30 April, Sunday

    Time Temperature Precipitation Wind Pressure Humidity
    00:00 -8°C° 0 mm 2 mps 590 mmHg 96%
    01:00 -8°C° 0 mm 2 mps 590 mmHg 96%
    02:00 -8°C° 0 mm 2 mps 590 mmHg 96%
    03:00 -8°C° 0 mm 2 mps 590 mmHg 96%
    04:00 -8°C° 0 mm 2 mps 590 mmHg 96%
    05:00 -7°C° 0 mm 2 mps 591 mmHg 96%
    06:00 -6°C° 0 mm 2 mps 591 mmHg 95%
    07:00 -4°C° 0 mm 2 mps 592 mmHg 95%
    08:00 -3°C° 0 mm 2 mps 592 mmHg 94%
    09:00 -2°C° 0 mm 2 mps 592 mmHg 94%
    10:00 +1°C° 0 mm 1 mps 593 mmHg 94%
    11:00 +2°C° 0 mm 1 mps 592 mmHg 94%
    12:00 +1°C° 0 mm 2 mps 592 mmHg 93%
    13:00 +1°C° 0 mm 2 mps 592 mmHg 93%
    14:00 +2°C° 0 mm 2 mps 592 mmHg 93%
    15:00 +3°C° 0 mm 1 mps 592 mmHg 93%
    16:00 +3°C° 0 mm 1 mps 592 mmHg 93%
    17:00 +1°C° 0 mm 2 mps 591 mmHg 94%
    18:00 -1°C° 0 mm 2 mps 591 mmHg 95%
    19:00 -2°C° 0 mm 2 mps 591 mmHg 96%
    20:00 -2°C° 0 mm 2 mps 591 mmHg 96%
    21:00 -3°C° 0 mm 2 mps 591 mmHg 97%
    22:00 -3°C° 0 mm 2 mps 591 mmHg 97%
    23:00 -4°C° 0 mm 2 mps 591 mmHg 97%

    1 May, Monday

    Time Temperature Precipitation Wind Pressure Humidity
    00:00 -4°C° 0 mm 2 mps 591 mmHg 96%
    01:00 -4°C° 0 mm 2 mps 591 mmHg 96%
    02:00 -4°C° 0 mm 2 mps 590 mmHg 96%
    03:00 -4°C° 0 mm 2 mps 590 mmHg 96%
    04:00 -5°C° 0 mm 2 mps 590 mmHg 96%
    05:00 -4°C° 0 mm 2 mps 590 mmHg 95%
    06:00 -3°C° 0 mm 2 mps 590 mmHg 94%
    07:00 -2°C° 0 mm 2 mps 590 mmHg 93%
    08:00 -1°C° 0 mm 2 mps 591 mmHg 92%
    09:00 +1°C° 0 mm 2 mps 591 mmHg 90%
    10:00 +2°C° 0 mm 2 mps 591 mmHg 89%
    11:00 +3°C° 0 mm 2 mps 591 mmHg 88%
    12:00 +3°C° 0 mm 2 mps 591 mmHg 87%
    13:00 +4°C° 0 mm 2 mps 591 mmHg 86%
    14:00 +4°C° 0 mm 2 mps 591 mmHg 86%
    15:00 +4°C° 0 mm 2 mps 591 mmHg 86%
    16:00 +4°C° 0 mm 2 mps 591 mmHg 85%
    17:00 +3°C° 0 mm 2 mps 591 mmHg 88%
    18:00 +2°C° 0 mm 2 mps 591 mmHg 90%
    19:00 -1°C° 0 mm 2 mps 590 mmHg 92%
    20:00 -1°C° 0 mm 2 mps 591 mmHg 92%
    21:00 -2°C° 0 mm 2 mps 591 mmHg 91%
    22:00 -3°C° 0 mm 2 mps 591 mmHg 91%
    23:00 -3°C° 0 mm 2 mps 591 mmHg 91%

    2 May, Tuesday

    Time Temperature Precipitation Wind Pressure Humidity
    00:00 -3°C° 0 mm 2 mps 591 mmHg 91%
    01:00 -3°C° 0 mm 2 mps 591 mmHg 92%
    02:00 -3°C° 0.1 mm 2 mps 592 mmHg 92%
    03:00 -4°C° 0.1 mm 2 mps 592 mmHg 91%
    04:00 -4°C° 0.1 mm 2 mps 592 mmHg 91%
    05:00 -3°C° 0 mm 2 mps 592 mmHg 90%
    06:00 0°C° 0 mm 1 mps 593 mmHg 89%
    07:00 +1°C° 0 mm 1 mps 594 mmHg 89%
    08:00 +3°C° 0 mm 1 mps 594 mmHg 86%
    09:00 +4°C° 0 mm 1 mps 595 mmHg 84%
    10:00 +5°C° 0 mm 1 mps 595 mmHg 82%
    11:00 +5°C° 0.2 mm 1 mps 595 mmHg 82%
    12:00 +6°C° 0.2 mm 1 mps 596 mmHg 82%
    13:00 +6°C° 0.2 mm 1 mps 596 mmHg 83%
    14:00 +6°C° 0.7 mm 1 mps 596 mmHg 85%
    15:00 +5°C° 0.7 mm 1 mps 596 mmHg 88%
    16:00 +5°C° 0.7 mm 1 mps 595 mmHg 91%
    17:00 +4°C° 0.6 mm 1 mps 595 mmHg 93%
    18:00 +4°C° 0.6 mm 1 mps 595 mmHg 95%
    19:00 +3°C° 0.6 mm 1 mps 595 mmHg 97%
    20:00 +2°C° 0.2 mm 1 mps 595 mmHg 96%
    21:00 +2°C° 0.2 mm 1 mps 595 mmHg 96%
    22:00 +1°C° 0.2 mm 1 mps 594 mmHg 96%
    23:00 +1°C° 0 mm 1 mps 594 mmHg 95%
    Show more